This is the latest recevied weather packets stored in our database for station/object K7OWW-2. If no packets are shown the sender has not sent any weather packets the latest 10 day(s).
| Time | Temp. | Humidity | Pressure | Rain* | Wind** | Luminosity | Snow |
|---|---|---|---|---|---|---|---|
| 1787552052 | 10.56° C | 70% | 1016.6 hPa | 0 mm | - | - | - |
| 1787551750 | 11.11° C | 69% | 1016.6 hPa | 0 mm | - | - | - |
| 1787551150 | 11.11° C | 69% | 1016.6 hPa | 0 mm | - | - | - |
| 1787550550 | 11.67° C | 69% | 1016.6 hPa | 0 mm | - | - | - |
| 1787550252 | 11.67° C | 68% | 1016.5 hPa | 0 mm | - | - | - |
| 1787549950 | 12.22° C | 68% | 1016.5 hPa | 0 mm | - | - | - |
| 1787549350 | 12.22° C | 67% | 1016.4 hPa | 0 mm | - | - | - |
| 1787548750 | 12.78° C | 67% | 1016.4 hPa | 0 mm | - | - | - |
| 1787548452 | 12.78° C | 66% | 1016.5 hPa | 0 mm | - | - | - |
| 1787548150 | 13.33° C | 65% | 1016.4 hPa | 0 mm | - | - | - |
| 1787547550 | 13.33° C | 65% | 1016.5 hPa | 0 mm | - | - | - |
| 1787546950 | 13.89° C | 63% | 1016.5 hPa | 0 mm | - | - | - |
| 1787546652 | 13.89° C | 62% | 1016.5 hPa | 0 mm | - | - | - |
| 1787546350 | 14.44° C | 61% | 1016.4 hPa | 0 mm | - | - | - |
| 1787545750 | 14.44° C | 59% | 1016.3 hPa | 0 mm | - | - | - |
| 1787545150 | 15° C | 58% | 1016.4 hPa | 0 mm | - | - | - |
| 1787544853 | 15.56° C | 57% | 1016.5 hPa | 0 mm | - | - | - |
| 1787544550 | 15.56° C | 58% | 1016.5 hPa | 0 mm | - | - | - |
| 1787543953 | 16.11° C | 56% | 1016.5 hPa | 0 mm | - | - | - |
| 1787543350 | 16.67° C | 54% | 1016.3 hPa | 0 mm | - | - | - |
| 1787543052 | 16.67° C | 53% | 1016.3 hPa | 0 mm | - | - | - |
| 1787542752 | 17.22° C | 52% | 1016.2 hPa | 0 mm | - | - | - |
| 1787542150 | 17.78° C | 51% | 1016.1 hPa | 0 mm | - | - | - |
| 1787541550 | 18.33° C | 51% | 1015.9 hPa | 0 mm | - | - | - |
| 1787541253 | 18.33° C | 49% | 1015.7 hPa | 0 mm | - | - | - |
* Rain latest hour (hover to see other rain measurements)
** Current wind speed in m/s (hover to see current wind gust speed)